[[{"header":{"parameterUnit":"m.s-1","parameterCategory":1,"la1":30.2991,"la2":30.254,"lo1":-89.0895,"lo2":-89.0444,"dy":0.0017,"dx":0.0017,"nx":28,"ny":28,"refTime":"2024-03-28T09:00:00:Z","depth":0,"parameterNumber":2,"parameterNumberName":"U-component_of_WINDS"},"data":[0,0,0,0,0,0,0,0,0,0,0,0,0,0,0,0,0,0,0,0,0,0,0,0,0,0,0,0,0,0,0,0,0,0,0,0,0,0,0,0,0,0,0,0,0,0,0,0,0,0,0,0,0,0,0,0,0,0,1.912,1.912,0,1.9124,1.9124,1.9124,1.9087,1.9086,1.9085,1.9084,1.9087,1.9088,1.9089,0,0,0,0,0,0,0,0,0,0,0,0,0,1.9081,1.9082,1.912,1.912,1.912,1.9124,1.9124,1.9124,1.9087,1.9086,1.9084,1.9083,1.9086,1.9088,1.9089,0,0,0,0,0,0,0,0,0,0,0,0,0,1.9093,1.9083,1.912,1.9102,1.9101,1.9124,1.9124,1.9124,1.9087,1.9086,1.9084,1.9083,1.9086,1.9088,1.9089,1.9129,0,0,1.9094,1.9095,0,0,0,0,0,0,0,0,1.9092,1.9094,1.9105,1.9104,1.9102,1.9103,1.9111,1.9126,1.9088,1.9092,1.9084,1.9082,1.9093,1.9094,1.9098,1.913,1.913,1.9094,1.9095,1.9096,1.9096,0,0,0,0,0,0,0,1.9092,1.9094,1.9122,1.9105,1.9103,1.9094,1.9094,1.9114,1.9101,1.9092,1.9089,1.909,1.9092,1.9097,1.9098,1.913,1.9094,1.9095,1.9096,1.9097,1.9195,1.9197,0,0,0,0,0,0,1.9093,1.9094,1.9122,1.9122,1.9093,1.9096,1.9096,1.9104,1.9101,1.9099,1.9091,1.9088,1.9095,1.9096,1.9098,1.9145,1.9096,1.9097,1.9098,1.9194,1.9196,1.9198,0,0,0,0,0,0,1.9093,1.9096,1.9121,1.9107,1.911,1.9098,1.9108,1.9105,1.911,1.9101,1.9098,1.9098,1.9094,1.9096,1.9122,1.9145,1.9098,1.9099,1.9192,1.9194,1.9197,1.924,0,0,0,0,0,0,1.9092,1.9096,1.9111,1.9108,1.9111,1.9145,1.9109,1.9106,1.9113,1.9109,1.9107,1.9105,1.9093,1.912,1.9124,1.9146,1.91,1.919,1.9193,1.9196,1.9237,1.9244,1.925,0,0,0,0,0,1.909,1.9123,1.9112,1.9116,1.9129,1.9147,1.9148,1.9134,1.9115,1.913,1.9124,1.9105,1.9142,1.9123,1.9127,1.915,1.9188,1.9192,1.9196,1.9234,1.9243,1.925,0,0,0,0,0,0,1.9128,1.9122,1.911,1.9142,1.9146,1.914,1.9159,1.9144,1.9152,1.9148,1.913,1.913,1.9159,1.9157,1.9136,1.919,1.9162,1.9167,1.9189,1.9198,1.9204,1.9204,1.9102,0,0,0,0,0,1.9141,1.9156,1.9149,1.9179,1.9181,1.917,1.9177,1.9166,1.9168,1.9169,1.9166,1.9169,1.9181,1.9189,1.92,1.9237,1.9236,1.9255,1.9262,1.9267,1.9271,1.9291,1.93,1.921,1.921,1.921,0,0,1.9166,1.9164,1.9175,1.9186,1.9187,1.9203,1.9171,1.9189,1.9201,1.9172,1.9196,1.9194,1.9197,1.9228,1.9242,1.9228,1.9296,1.9272,1.9277,1.9278,1.9296,1.9304,1.9312,1.9213,1.9212,1.9212,0,0,1.922,1.9221,1.9245,1.9247,1.925,1.9243,1.9249,1.9247,1.9244,1.9269,1.9247,1.9261,1.9283,1.9286,1.929,1.9347,1.933,1.9352,1.9386,1.9406,1.9413,1.9419,1.9439,1.9447,1.9356,1.9356,1.9356,0,1.9251,1.9274,1.926,1.928,1.9285,1.9261,1.9286,1.9289,1.9295,1.9299,1.9284,1.9311,1.9311,1.9343,1.9357,1.9362,1.9368,1.9351,1.9413,1.9419,1.9425,1.9444,1.9452,1.9359,1.9358,1.9358,1.9358,0,1.9312,1.9329,1.9349,1.9356,1.9364,1.9386,1.9375,1.9385,1.9374,1.9369,1.9395,1.9394,1.9405,1.9412,1.9401,1.9443,1.9434,1.9416,1.9388,1.9436,1.9454,1.9461,1.9362,1.9361,1.9361,1.936,0,0,1.9388,1.9388,1.9396,1.9399,1.9401,1.9414,1.9436,1.9447,1.9456,1.9462,1.9479,1.9499,1.9483,1.9488,1.9477,1.9494,1.954,1.9474,1.9474,1.9486,1.9587,1.96,1.9609,1.9529,1.9531,1.9532,1.9587,0,1.9441,1.9478,1.9466,1.9504,1.9519,1.9498,1.9517,1.952,1.9516,1.9529,1.9525,1.9539,1.9516,1.9519,1.9536,1.9531,1.956,1.9527,1.9546,1.9546,1.9545,1.9618,1.9632,1.9684,1.9594,1.9595,1.9596,0,1.9506,1.9515,1.9555,1.9555,1.9561,1.9579,1.9588,1.9601,1.9605,1.9601,1.9608,1.9594,1.9616,1.9588,1.9618,1.9596,1.9603,1.9602,1.9604,1.9604,1.9573,1.962,1.97,1.9707,1.9607,1.9606,1.9605,0,1.9558,1.958,1.9606,1.961,1.9611,1.9624,1.9625,1.9628,1.9636,1.9644,1.9649,1.9661,1.9666,1.9676,1.9665,1.9646,1.9697,1.9668,1.9694,1.9694,1.9705,1.9704,1.9786,1.9711,1.9711,1.9711,1.971,0,1.9617,1.9642,1.963,1.9646,1.9673,1.966,1.9688,1.9687,1.9689,1.9705,1.9687,1.9703,1.9688,1.9703,1.9695,1.9721,1.9724,1.9721,1.9719,1.9722,1.9723,1.9726,1.9722,1.9713,1.9712,1.9712,1.9711,0,1.9678,1.9671,1.9698,1.9698,1.9699,1.9719,1.9719,1.9734,1.973,1.975,1.9754,1.9747,1.9763,1.9754,1.977,1.9765,1.9799,1.9792,1.9798,1.9796,1.9822,1.9819,1.9908,1.9919,1.9837,1.9838,1.9839,0,1.9716,1.9734,1.9737,1.9746,1.9749,1.9765,1.9773,1.9762,1.9771,1.9778,1.9792,1.9807,1.9818,1.9844,1.984,1.9853,1.9846,1.9876,1.9847,1.9851,1.9846,1.9844,1.9846,1.9881,1.9882,1.9883,1.9884,0,1.9783,1.978,1.9792,1.9805,1.9815,1.9824,1.9831,1.984,1.9829,1.9841,1.9857,1.9866,1.9883,1.9898,1.9909,1.991,1.9895,1.9893,1.99,1.9903,1.9906,1.9904,1.9813,1.9891,1.989,1.989,1.9889,1.9889,1.9834,1.985,1.9854,1.9869,1.9874,1.9882,1.9896,1.9895,1.9908,1.9921,1.9914,1.9934,1.9938,1.9952,1.9955,1.997,1.9958,1.9967,1.997,1.9972,1.9976,1.9904,1.9972,1.9972,1.9972,1.9972,1.9972,0,1.99,1.9902,1.9917,1.9928,1.9941,1.9927,1.9935,1.9946,1.9963,1.9969,1.9981,2.0,2.0015,2.0013,2.0027,2.0039,2.0033,2.0043,2.0041,2.0042,1.9986,1.9979,2.0048,2.0048,2.0048,2.0048,2.0048,2.0048,1.9936,1.9963,1.996,1.9989,1.9991,2.001,2.0016,2.0023,2.0028,2.005,2.0063,2.0062,2.0065,2.0079,2.0092,2.0091,2.0097,2.0109,2.0106,2.0053,2.0046,2.0039,2.0032,2.0111,2.0111,2.0161,2.0161,2.0162]},{"header":{"parameterUnit":"m.s-1","parameterCategory":1,"la1":30.2991,"la2":30.254,"lo1":-89.0895,"lo2":-89.0444,"dy":0.0017,"dx":0.0017,"nx":28,"ny":28,"refTime":"2024-03-28T09:00:00:Z","depth":0,"parameterNumber":3,"parameterNumberName":"V-component_of_WINDS"},"data":[0,0,0,0,0,0,0,0,0,0,0,0,0,0,0,0,0,0,0,0,0,0,0,0,0,0,0,0,0,0,0,0,0,0,0,0,0,0,0,0,0,0,0,0,0,0,0,0,0,0,0,0,0,0,0,0,0,0,-6.0808,-6.081,0,-6.0987,-6.0989,-6.0991,-6.0943,-6.094,-6.0936,-6.0933,-6.1113,-6.1121,-6.1129,0,0,0,0,0,0,0,0,0,0,0,0,0,-6.0424,-6.0431,-6.0808,-6.081,-6.0813,-6.0987,-6.0989,-6.0991,-6.0944,-6.094,-6.0935,-6.0931,-6.111,-6.112,-6.113,0,0,0,0,0,0,0,0,0,0,0,0,0,-6.0595,-6.0433,-6.0808,-6.081,-6.0812,-6.0986,-6.0989,-6.0992,-6.0945,-6.0939,-6.0934,-6.0929,-6.1107,-6.1119,-6.1131,-6.1313,0,0,-6.1168,-6.1173,0,0,0,0,0,0,0,0,-6.0586,-6.0609,-6.0807,-6.081,-6.0813,-6.0937,-6.092,-6.11,-6.0946,-6.0894,-6.0933,-6.0927,-6.1059,-6.1075,-6.112,-6.1322,-6.1329,-6.1169,-6.1177,-6.1182,-6.1185,0,0,0,0,0,0,0,-6.0574,-6.0601,-6.0879,-6.081,-6.0814,-6.0801,-6.082,-6.0953,-6.1004,-6.0898,-6.0895,-6.0917,-6.1059,-6.1108,-6.1124,-6.1332,-6.1169,-6.118,-6.1187,-6.1192,-6.1694,-6.1699,0,0,0,0,0,0,-6.056,-6.0592,-6.0873,-6.0884,-6.0684,-6.0813,-6.0833,-6.0903,-6.1003,-6.1013,-6.0922,-6.0914,-6.109,-6.1109,-6.113,-6.1351,-6.1182,-6.1193,-6.12,-6.1688,-6.1695,-6.1701,0,0,0,0,0,0,-6.0552,-6.0586,-6.0866,-6.0737,-6.0772,-6.0825,-6.0903,-6.0909,-6.0958,-6.102,-6.1029,-6.0963,-6.1086,-6.1113,-6.1268,-6.1356,-6.1199,-6.121,-6.168,-6.169,-6.1698,-6.1794,0,0,0,0,0,0,-6.0541,-6.0583,-6.0653,-6.0739,-6.0779,-6.1003,-6.0909,-6.0916,-6.098,-6.0972,-6.1061,-6.1071,-6.1084,-6.1251,-6.1281,-6.137,-6.1219,-6.1673,-6.1685,-6.1695,-6.1783,-6.1805,-6.1824,0,0,0,0,0,-6.0528,-6.0672,-6.0657,-6.0691,-6.0868,-6.1008,-6.103,-6.1044,-6.0987,-6.1058,-6.1098,-6.1068,-6.1342,-6.1267,-6.13,-6.1395,-6.1667,-6.1681,-6.1694,-6.1774,-6.1801,-6.1823,0,0,0,0,0,0,-6.0594,-6.0683,-6.0668,-6.0844,-6.0919,-6.0999,-6.1089,-6.1072,-6.1163,-6.1152,-6.1164,-6.1185,-6.1344,-6.1385,-6.13,-6.1577,-6.1496,-6.1517,-6.1545,-6.1571,-6.1591,-6.1578,-6.1229,0,0,0,0,0,-6.0629,-6.0736,-6.0808,-6.0957,-6.0995,-6.1036,-6.1097,-6.1102,-6.1179,-6.121,-6.1261,-6.1337,-6.144,-6.1507,-6.1605,-6.1788,-6.1808,-6.187,-6.189,-6.1907,-6.1925,-6.2026,-6.2055,-6.1746,-6.1746,-6.1745,0,0,-6.0703,-6.0765,-6.0831,-6.0972,-6.103,-6.114,-6.1063,-6.1182,-6.1263,-6.1227,-6.1379,-6.1419,-6.1504,-6.1675,-6.1752,-6.1713,-6.2015,-6.1924,-6.1937,-6.1946,-6.2043,-6.2072,-6.2098,-6.1755,-6.1753,-6.1752,0,0,-6.0894,-6.0951,-6.1083,-6.1143,-6.1233,-6.1259,-6.129,-6.1374,-6.14,-6.1552,-6.1528,-6.1624,-6.1802,-6.1864,-6.1918,-6.2134,-6.2111,-6.2166,-6.2272,-6.2371,-6.2395,-6.2417,-6.2495,-6.2523,-6.2183,-6.2184,-6.2184,0,-6.0974,-6.114,-6.1152,-6.1274,-6.1337,-6.1311,-6.1444,-6.1501,-6.1618,-6.1662,-6.1616,-6.184,-6.1895,-6.208,-6.2133,-6.2178,-6.2214,-6.2156,-6.2391,-6.2413,-6.2433,-6.2508,-6.2537,-6.219,-6.2189,-6.2189,-6.2188,0,-6.1234,-6.135,-6.1444,-6.156,-6.1633,-6.176,-6.1791,-6.1864,-6.1862,-6.1893,-6.2048,-6.2114,-6.2226,-6.2269,-6.2268,-6.2456,-6.2429,-6.2387,-6.2306,-6.2469,-6.2539,-6.2568,-6.2199,-6.2197,-6.2195,-6.2193,0,0,-6.1472,-6.1594,-6.1628,-6.1681,-6.1778,-6.1867,-6.1993,-6.2104,-6.2166,-6.2248,-6.2354,-6.2505,-6.2468,-6.253,-6.2535,-6.2621,-6.279,-6.2569,-6.2571,-6.2609,-6.3002,-6.3034,-6.3067,-6.2774,-6.278,-6.2784,-6.2995,0,-6.1673,-6.1896,-6.1911,-6.2112,-6.2219,-6.2196,-6.2305,-6.2377,-6.2409,-6.2504,-6.2539,-6.2647,-6.2589,-6.2627,-6.2711,-6.2752,-6.2869,-6.2736,-6.2873,-6.2878,-6.2854,-6.3103,-6.3137,-6.3333,-6.3023,-6.3027,-6.3031,0,-6.1936,-6.2028,-6.224,-6.2324,-6.237,-6.2468,-6.2571,-6.2662,-6.2743,-6.276,-6.2831,-6.2824,-6.2953,-6.2867,-6.3045,-6.2955,-6.3012,-6.304,-6.3048,-6.3062,-6.2965,-6.3126,-6.3396,-6.3426,-6.3074,-6.3071,-6.3068,0,-6.209,-6.2266,-6.2417,-6.2462,-6.2563,-6.2633,-6.2678,-6.2754,-6.282,-6.2909,-6.2952,-6.3056,-6.3112,-6.3192,-6.3214,-6.3149,-6.3392,-6.3307,-6.3411,-6.341,-6.3464,-6.346,-6.3749,-6.3498,-6.3498,-6.3497,-6.3497,0,-6.2314,-6.2445,-6.2487,-6.258,-6.2726,-6.2742,-6.2887,-6.2927,-6.2995,-6.3095,-6.308,-6.3174,-6.3196,-6.3294,-6.3311,-6.3457,-6.3482,-6.35,-6.3504,-6.3503,-6.3501,-6.3541,-6.3528,-6.3505,-6.3503,-6.3502,-6.3501,0,-6.2511,-6.2544,-6.2707,-6.279,-6.2814,-6.2918,-6.2989,-6.3078,-6.3108,-6.3235,-6.3266,-6.3314,-6.3429,-6.3458,-6.3594,-6.3606,-6.3779,-6.3768,-6.3752,-6.3752,-6.3855,-6.3845,-6.418,-6.4225,-6.3944,-6.3946,-6.3949,0,-6.2651,-6.2752,-6.2846,-6.2913,-6.2962,-6.3069,-6.3137,-6.3156,-6.3227,-6.3327,-6.3404,-6.3518,-6.361,-6.3794,-6.3841,-6.3946,-6.3939,-6.4049,-6.3954,-6.3951,-6.3942,-6.3936,-6.3947,-6.4067,-6.407,-6.4072,-6.4074,0,-6.2898,-6.291,-6.3009,-6.3115,-6.3197,-6.328,-6.336,-6.3415,-6.3445,-6.3526,-6.3644,-6.3716,-6.3856,-6.3969,-6.4075,-6.4121,-6.4104,-6.4104,-6.4133,-6.4134,-6.4121,-6.4131,-6.3803,-6.4096,-6.4094,-6.4092,-6.4091,-6.409,-6.3073,-6.3162,-6.3243,-6.3354,-6.3416,-6.3491,-6.358,-6.3622,-6.3721,-6.3838,-6.3843,-6.3972,-6.4051,-6.4191,-6.4243,-6.4344,-6.4311,-6.4353,-6.4364,-6.4375,-6.4385,-6.4104,-6.4363,-6.4362,-6.4362,-6.4361,-6.4361,0,-6.332,-6.3371,-6.3473,-6.3586,-6.3674,-6.365,-6.3738,-6.3813,-6.3927,-6.4002,-6.4093,-6.423,-6.4339,-6.4395,-6.4504,-6.4574,-6.4569,-6.4602,-6.4598,-6.4609,-6.4408,-6.4372,-6.4605,-6.4605,-6.4605,-6.4605,-6.4605,-6.4605,-6.3459,-6.3609,-6.3631,-6.3812,-6.3862,-6.3989,-6.4041,-6.4111,-6.4172,-6.4325,-6.4417,-6.4453,-6.4521,-6.4635,-6.4735,-6.4748,-6.4789,-6.4827,-6.4837,-6.4648,-6.4623,-6.4599,-6.4566,-6.4836,-6.4836,-6.503,-6.5032,-6.5033]}]]